(290347) = 1995 SF82 = 2005 SC248

Discovered at Kitt Peak on 2005-09-30 by Spacewatch.

Orbit

Orbit type: Main Belt

Note: WebGL enabled browser required.

epoch2023-02-25.0
epoch JD2460000.5
perihelion date2019-11-11.59792
perihelion JD2458799.09792
argument of perihelion (°)42.96722
ascending node (°)299.60068
inclination (°)1.06253
eccentricity0.0739729
perihelion distance (AU)2.6548176
Tisserand w.r.t. Jupiter3.3
ΔV w.r.t. Earth (km/sec)10.2
semimajor axis (AU)2.8668897
mean anomaly (°)243.93592
mean daily motion (°/day)0.20304270
aphelion distance (AU)3.079
period (years)4.85
P-vector [x]0.95397071
P-vector [y]-0.27993569
P-vector [z]-0.10759129
Q-vector [x]0.29946604
Q-vector [y]0.86988999
Q-vector [z]0.39193303
absolute magnitude17.16
phase slope0.15
uncertainty0
referenceMPO 745323
observations used164
oppositions15
arc length (days)10132
first opposition used1995
last opposition used2023
residual rms (arc-secs)0.75
perturbers coarse indicatorM-v
perturbers precise indicator003Ek
first observation date used1995-09-23.0
last observation date used2023-06-20.0
computer nameMPCLINUX
JD of orbit computation2456909.099452
perihelion JD uncertainty (days)1.6203E-04
argument of perihelion uncertainty (°)2.5311E-04
ascending node uncertainty (°)2.5077E-04
inclination uncertainty (°)4.5479E-06
eccentricity uncertainty 5.1720E-08
perihelion distance uncertainty (AU)1.5661E-07
Minimum Orbit Intersection Distances (in AU)
for orbit epoch: 2460000.5, reference: E2023-M76
Mercury2.25661
Venus1.92985
Earth1.64509
Mars1.27365
Jupiter2.20935
Saturn6.10369
Uranus15.3644
Neptune27.1166

Observations

165 total observations over interval: 1995 09 23.17841 – 2023 06 20.384079
These data are available for download (format description).

Date (UT) J2000 RA J2000 Dec Magn Location Ref
1995 09 23.17841 23 21 09.96 -02 42 10.0   691 – Steward Observatory, Kitt Peak-Spacewatch MPS 32147
1995 09 23.19906 23 21 09.03 -02 42 16.5 21.4 V 691 – Steward Observatory, Kitt Peak-Spacewatch MPS 32147
1995 09 23.21973 23 21 08.06 -02 42 22.6   691 – Steward Observatory, Kitt Peak-Spacewatch MPS 32147
1995 09 27.28584 23 18 08.18 -03 01 03.5 21.2 V 691 – Steward Observatory, Kitt Peak-Spacewatch MPS 32147
1995 09 27.31546 23 18 06.87 -03 01 11.1 21.0 V 691 – Steward Observatory, Kitt Peak-Spacewatch MPS 32147
1995 09 27.33632 23 18 05.95 -03 01 17.0 21.0 V 691 – Steward Observatory, Kitt Peak-Spacewatch MPS 32147
2005 09 30.36261 01 41 15.74 +12 15 17.1 20.9 V 691 – Steward Observatory, Kitt Peak-Spacewatch MPS 147616
2005 09 30.37998 01 41 14.96 +12 15 13.2 20.6 V 691 – Steward Observatory, Kitt Peak-Spacewatch MPS 147616
2005 09 30.39740 01 41 14.19 +12 15 10.0 20.9 V 691 – Steward Observatory, Kitt Peak-Spacewatch MPS 147616
2005 10 07.34305 01 36 00.32 +11 47 16.9 21.1 V 691 – Steward Observatory, Kitt Peak-Spacewatch MPS 147616
2005 10 07.36043 01 35 59.48 +11 47 11.9 21.3 V 691 – Steward Observatory, Kitt Peak-Spacewatch MPS 147616
2005 10 07.37781 01 35 58.65 +11 47 08.1 21.2 V 691 – Steward Observatory, Kitt Peak-Spacewatch MPS 147616
2005 10 11.34376 01 32 46.75 +11 29 25.7 20.6 V 691 – Steward Observatory, Kitt Peak-Spacewatch MPS 150800
2005 10 11.36112 01 32 45.86 +11 29 21.1 20.6 V 691 – Steward Observatory, Kitt Peak-Spacewatch MPS 150800
2005 10 11.37848 01 32 45.00 +11 29 16.3 20.5 V 691 – Steward Observatory, Kitt Peak-Spacewatch MPS 150800
2005 10 26.11544 01 20 43.16 +10 18 38.6 20.8 V 691 – Steward Observatory, Kitt Peak-Spacewatch MPS 150800
2005 10 26.13086 01 20 42.36 +10 18 34.1 21.0 V 691 – Steward Observatory, Kitt Peak-Spacewatch MPS 150800
2005 10 26.14619 01 20 41.64 +10 18 29.8 20.7 V 691 – Steward Observatory, Kitt Peak-Spacewatch MPS 150800
2005 11 06.25619 01 12 51.12 +09 28 48.2 21.1 V G96 – Mt. Lemmon Survey MPS 150800
2005 11 06.26582 01 12 50.76 +09 28 45.8 20.8 V G96 – Mt. Lemmon Survey MPS 150800
2005 11 06.27540 01 12 50.40 +09 28 43.3 21.2 V G96 – Mt. Lemmon Survey MPS 150800
2005 11 06.28502 01 12 49.96 +09 28 41.0 21.4 V G96 – Mt. Lemmon Survey MPS 150800
2007 02 06.15575 07 47 06.05 +21 06 58.5   691 – Steward Observatory, Kitt Peak-Spacewatch MPS 198721
2007 02 06.17508 07 47 05.11 +21 07 00.6   691 – Steward Observatory, Kitt Peak-Spacewatch MPS 198721
2007 02 06.19421 07 47 04.24 +21 07 02.4   691 – Steward Observatory, Kitt Peak-Spacewatch MPS 198721
2008 04 13.29957 12 54 44.64 -07 32 15.4 21.6 V G96 – Mt. Lemmon Survey MPS 286914
2008 04 13.30608 12 54 44.31 -07 32 13.9 21.3 V G96 – Mt. Lemmon Survey MPS 286914
2008 04 13.31258 12 54 43.88 -07 32 11.5 22.0 V G96 – Mt. Lemmon Survey MPS 286914
2008 04 13.31916 12 54 43.66 -07 32 09.5 21.2 V G96 – Mt. Lemmon Survey MPS 286914
2010 10 14.507728 02 46 23.106 +17 45 02.93 21.05 i F51 – Pan-STARRS 1, Haleakala MPS 365543
2010 10 14.519491 02 46 22.582 +17 45 00.83 21.12 i F51 – Pan-STARRS 1, Haleakala MPS 365543
2010 10 17.32767 02 44 19.17 +17 36 23.4 20.6 V G96 – Mt. Lemmon Survey MPS 351211
2010 10 17.33459 02 44 18.88 +17 36 22.5 21.0 V G96 – Mt. Lemmon Survey MPS 351211
2010 10 17.34148 02 44 18.60 +17 36 20.9 21.6 V G96 – Mt. Lemmon Survey MPS 351211
2010 10 17.34833 02 44 18.20 +17 36 19.8 21.2 V G96 – Mt. Lemmon Survey MPS 351211
2010 11 08.290305 02 25 47.119 +16 09 40.09 21.37 g F51 – Pan-STARRS 1, Haleakala MPS 365543
2010 11 08.301620 02 25 46.542 +16 09 36.96 21.32 g F51 – Pan-STARRS 1, Haleakala MPS 365543
2010 12 08.19116 02 07 22.04 +14 24 33.2 21.6 V G96 – Mt. Lemmon Survey MPS 358897
2010 12 08.19638 02 07 21.97 +14 24 32.5 21.3 V G96 – Mt. Lemmon Survey MPS 358897
2010 12 08.20157 02 07 21.86 +14 24 32.3 21.8 V G96 – Mt. Lemmon Survey MPS 358897
2010 12 08.20684 02 07 21.75 +14 24 31.5 21.4 V G96 – Mt. Lemmon Survey MPS 358897
2012 01 27.42031 08 53 51.97 +17 11 42.5 21.6 V G96 – Mt. Lemmon Survey MPS 410055
2012 01 27.42554 08 53 51.64 +17 11 43.7 20.9 V G96 – Mt. Lemmon Survey MPS 410055
2012 01 27.43079 08 53 51.36 +17 11 44.9 21.1 V G96 – Mt. Lemmon Survey MPS 410055
2012 01 27.43603 08 53 51.07 +17 11 45.7 21.6 V G96 – Mt. Lemmon Survey MPS 410055
2012 02 01.28520 08 49 31.26 +17 27 45.6   291 – LPL/Spacewatch II MPS 411483
2012 02 01.28873 08 49 31.06 +17 27 46.1   291 – LPL/Spacewatch II MPS 411483
2012 02 01.29220 08 49 30.81 +17 27 46.3   291 – LPL/Spacewatch II MPS 411483
2012 02 01.38754 08 49 25.60 +17 28 05.3 20.9 V G96 – Mt. Lemmon Survey MPS 411483
2012 02 01.39785 08 49 25.06 +17 28 07.3 20.6 V G96 – Mt. Lemmon Survey MPS 411483
2012 02 01.40759 08 49 24.49 +17 28 09.4 20.9 V G96 – Mt. Lemmon Survey MPS 411483
2013 04 09.45556 13 52 47.605 -13 15 53.21 21.2 w F51 – Pan-STARRS 1, Haleakala MPS 463896
2013 04 09.47021 13 52 46.891 -13 15 49.63 21.3 w F51 – Pan-STARRS 1, Haleakala MPS 463896
2013 04 09.48491 13 52 46.186 -13 15 46.13 21.0 w F51 – Pan-STARRS 1, Haleakala MPS 463896
2013 04 09.49953 13 52 45.470 -13 15 42.29 21.1 w F51 – Pan-STARRS 1, Haleakala MPS 463896
2013 04 17.13219 13 46 37.43 -12 42 41.9 22.1 r W84 – Cerro Tololo-DECam MPS 470587
2013 04 17.13635 13 46 37.22 -12 42 40.8 22.1 r W84 – Cerro Tololo-DECam MPS 470587
2013 04 17.14060 13 46 37.01 -12 42 39.6 22.2 r W84 – Cerro Tololo-DECam MPS 470587
2013 04 17.14480 13 46 36.80 -12 42 38.5 22.0 r W84 – Cerro Tololo-DECam MPS 470587
2013 04 18.13104 13 45 48.38 -12 38 11.6 21.7 r W84 – Cerro Tololo-DECam MPS 470587
2013 04 18.13519 13 45 48.17 -12 38 10.5 21.8 r W84 – Cerro Tololo-DECam MPS 470587
2013 04 18.13945 13 45 47.95 -12 38 09.4 21.8 r W84 – Cerro Tololo-DECam MPS 470587
2013 04 18.14362 13 45 47.74 -12 38 08.2 21.9 r W84 – Cerro Tololo-DECam MPS 470587
2013 04 19.28956 13 44 51.20 -12 32 55.9 21.6 r W84 – Cerro Tololo-DECam MPS 470587
2013 04 19.29966 13 44 50.69 -12 32 53.1 21.6 r W84 – Cerro Tololo-DECam MPS 470587
2013 04 19.30469 13 44 50.44 -12 32 51.7 21.5 r W84 – Cerro Tololo-DECam MPS 470587
2014 07 25.42861 20 32 55.965 -18 40 17.00 20.3 w F51 – Pan-STARRS 1, Haleakala MPS 525241
2014 07 25.44058 20 32 55.318 -18 40 18.89 20.3 w F51 – Pan-STARRS 1, Haleakala MPS 525241
2014 07 25.45260 20 32 54.670 -18 40 20.89 20.2 w F51 – Pan-STARRS 1, Haleakala MPS 525241
2014 07 25.46457 20 32 54.028 -18 40 22.75 20.3 w F51 – Pan-STARRS 1, Haleakala MPS 525241
2014 07 27.37853 20 31 14.814 -18 45 30.27 20.3 w F51 – Pan-STARRS 1, Haleakala MPS 525241
2014 07 27.39070 20 31 14.156 -18 45 32.19 20.4 w F51 – Pan-STARRS 1, Haleakala MPS 525241
2014 07 27.40289 20 31 13.489 -18 45 34.18 20.4 w F51 – Pan-STARRS 1, Haleakala MPS 525241
2014 07 27.41507 20 31 12.824 -18 45 36.10 20.4 w F51 – Pan-STARRS 1, Haleakala MPS 525241
2014 07 29.36194 20 29 31.349 -18 50 46.81 20.4 w F51 – Pan-STARRS 1, Haleakala MPS 525241
2014 07 29.37409 20 29 30.689 -18 50 48.89 20.4 w F51 – Pan-STARRS 1, Haleakala MPS 525241
2014 07 29.38623 20 29 30.032 -18 50 50.84 20.3 w F51 – Pan-STARRS 1, Haleakala MPS 525241
2014 07 29.39838 20 29 29.377 -18 50 52.83 20.3 w F51 – Pan-STARRS 1, Haleakala MPS 525241
2014 07 31.36198 20 27 47.041 -18 56 02.47 20.5 w F51 – Pan-STARRS 1, Haleakala MPS 525241
2014 07 31.37443 20 27 46.365 -18 56 04.43 20.0 w F51 – Pan-STARRS 1, Haleakala MPS 525241
2014 07 31.38681 20 27 45.688 -18 56 06.34 20.3 w F51 – Pan-STARRS 1, Haleakala MPS 525241
2014 07 31.39922 20 27 45.011 -18 56 08.56 20.2 w F51 – Pan-STARRS 1, Haleakala MPS 525241
2014 08 25.34355 20 09 21.367 -19 47 10.04 21.0 w F51 – Pan-STARRS 1, Haleakala MPS 529470
2014 08 25.35520 20 09 20.965 -19 47 10.85 20.9 w F51 – Pan-STARRS 1, Haleakala MPS 529470
2014 08 25.36685 20 09 20.595 -19 47 11.56 20.8 w F51 – Pan-STARRS 1, Haleakala MPS 529470
2014 08 25.37850 20 09 20.209 -19 47 12.55 20.8 w F51 – Pan-STARRS 1, Haleakala MPS 529470
2015 11 03.45073 03 45 22.11 +21 22 51.3 21.3 V G96 – Mt. Lemmon Survey MPS 644789
2015 11 03.45531 03 45 21.96 +21 22 50.9 22.6 V G96 – Mt. Lemmon Survey MPS 644789
2015 11 03.46445 03 45 21.46 +21 22 50.1 21.0 V G96 – Mt. Lemmon Survey MPS 644789
2015 11 04.38972 03 44 35.762 +21 20 26.94 20.9 w F51 – Pan-STARRS 1, Haleakala MPS 644789
